Location: Herksen
(52.4316°N, 6.1319°E)
Time: 10:50:12
(UTC+00:00)

Ariane Rocket - Pass Details

Date: 15 May 2026
Orbit: 755 x 763 km, 98.4° (Epoch: 5 June)

Event Time Altitude Azimuth Distance (km) Brightness Sun altitude
Exits shadow 20:59:02 13° 164° (SSE) 2,069 4.7 -11.2°
Maximum altitude 21:03:32 89° 255° (WSW) 770 3.0 -11.6°
Drops below altitude 10° 21:08:39 10° 345° (NNW) 2,310 6.7 -12.1°
Sets 21:10:58 0° 345° (NNW) 3,241 7.7 -12.3°
